Погода в Слуцке

Погода в Слуцке : погода сейчас, прогноз погоды и архив. Всё, что Вы хотите узнать о погоде в Слуцке!

Хотите узнать прогноз погоды в Слуцке? Тогда Вам сюда: Погода в Слуцке

Поиск расширенной информации на нашем сайте:

Другие новости

Новости СМИ2

Главная страница сайта

Новости сайта

02.10.2013

Напоминаем, что на нашем новом сайте вы можете получить высокодетализированные прогнозы погоды по пунктам России, СНГ и мира (включающие важные для авиации метеовеличины, такие как направление и скорость ветра, видимость, явления погоды, количество и форма облачности, нижняя и верхняя граница облачности), а также ознакомиться с разнообразными материалами по авиационной метеорологии и подборкой полезных ссылок на эту тему.

Сайт Метеоцентр.Азия посвящён разработке технологий оптимизации авиаметеорологического обслуживания, включая проектирование и перспективное создание нескольких автоматизированных авиаметеорологических систем:
- система выпуска высокодетальных прогностических карт явлений погоды для нижнего воздушного пространства по России и ближнему зарубежью;
- система верификации прогнозов TAF (выпускаемых синоптиками официальных АМСГ РФ и ближнего зарубежья) и AUTOTAF (выпускаемых сайтом Метеоцентр.Азия) - выявление ошибок, онлайн-сопоставление с фактической погодой METAR, автоматическое внесение коррективов в прогнозы при резком отклонении фактической погоды от прогноза, подсчёт оправдываемости прогнозов по элементам и в целом;
- система обработки, анализа и отображения авиаметеорологической информации для применения провайдерами метеорологической информации.

Рекомендуем: Круг стальной нержавеющий 14х17н2 калиброванный www.inotex.su.

Погода в Слуцке - сегодня

Время (UTC), дата Ветер
(°,м/с) 
Видим.   Явления Облачность Т
(°С)
Тd
(°С)
f(%) Тe
(°С)
Pmin
(гПа)
dP
(гПа)
Po
(мм)
O2
(г/м3)
Тmin Tmax R s Состояние
почвы
21 30.08.14 040 (СВ) 7000 м  дымка{ливн. осадки}  4/0 средняя 
[Ac und]
+14.4 +13.5 94 +22  1015.9  -0.5  748  283           
00 31.08.14 100 (В) 3800 м  дымка{ливн. осадки}  ясно 
+13.1 +12.7 97 +19  1015.5  -0.6  747  285           
03 31.08.14 230 (ЮЗ) 2500 м  дымка  9/0 средняя 
[Ac und]
+13.2 +12.5 96 +19  1014.6  -0.9  746  284      0.4     
06 31.08.14 270 (З) 5000 м  дымка  9/0 средняя 
[Ac und]
+15.5 +14.3 93 +24  1014.4  0.1  746  282  +12.3    0.4     
09 31.08.14 270 (З) 12000 м    9/1 600 м средняя 
[Sc|Ac trans]
+19.2 +12.4 65 +25  1014.7  0.4  747  279           
12 31.08.14 290 (З) 25000 м    9/4 600 м кучево-дожд., средняя, верхняя 
[Cb cap|As op|Cc]
+20.6 +12.1 58 +25  1014.2  -0.3  747  277           
15 31.08.14 290 (З) 20000 м    9/9 600 м кучево-дожд., средняя 
[Cb cap|Ac und]
+19.4 +13.8 70 +27  1014.1  -0.1  746  278           
18 31.08.14 090 (В) 12000 м    8/0 верхняя 
[Ci sp]
+14.8 +12.8 88 +20  1015.1  0.6  747  283    +21.8       
21 31.08.14 020 (С) 7000 м  дымка  5/0 верхняя 
[Ci sp]
+11 +10.3 95 +14  1015.6  0.2  747  287           
00 01.09.14 050 (СВ) 0200 м  туман  5/0 верхняя 
[Ci sp]
+11.6 +11.6 100 +16  1015.8  0.3  747  287           
03 01.09.14 050 (СВ) 5000 м  дымка{туман}  10/10 210 м 
[St]
+12.5 +12.1 97 +17  1015.8  747  286           
06 01.09.14 070 (В) 3800 м  дымка{туман}  10/10 180 м 
[St]
+12.5 +12.3 99 +16  1016.3  0.5  748  286  +9.9         
09 01.09.14 060 (СВ) 8000 м  дымка  10/10 330 м 
[St]
+14.5 +12.8 90 +21  1017  0.8  748  284           
12 01.09.14 тихо ()   12000 м    9/9 500 м 
[Sc]
+16.7 +13.9 84 +24  1016.9  748  281           
15 01.09.14 040 (СВ) 14000 м    9/9 600 м 
[Sc]
+16 +13.3 84 +23  1017.1  0.2  748  282           
18 01.09.14 020 (С) 13000 м    9/9 570 м 
[Sc]
+14.8 +12.2 84 +19  1017.6  0.4  749  284    +17.1       
21 01.09.14 030 (СВ) 10 км    9/9 800 м 
[Sc]
+13.3 +12.2 93 +19  1018.2  0.5  749  285           
00 02.09.14 070 (В) 8000 м  дымка  9/9 700 м 
[Sc]
+11.7 +11 95 +16  1018.4  0.2  749  287           
03 02.09.14 030 (СВ) 7000 м  дымка  9/9 600 м 
[Sc]
+11.5 +11 97 +15  1018.9  0.3  749  288           
06 02.09.14 330 (СЗ) 10 км    10/10 330 м 
[St]
+11.2 +9.7 90 +12  1020  1.1  750  289  +11.2         
09 02.09.14 040 (СВ) 14000 м    9/9 660 м 
[Sc]
+13.1 +9.8 80 +15  1020.8  751  287           
12 02.09.14 070 (В) 18000 м    9/4 600 м верхняя 
[Cu med, cong|Ci fib]
+16.7 +10.5 67 +20  1020.8  0.2  751  283           
15 02.09.14 060 (СВ) 15000 м    3/1 600 м верхняя 
[Sc diur, vesp|Ci fib]
+18.7 +10.7 60 +21  1020.7  0.1  751  281           
18 02.09.14 040 (СВ) 12000 м    1/0 верхняя 
[Ci fib]
+13.7 +11.1 84 +18  1022.5  1.4  752  287    +18.7       
21 02.09.14 060 (СВ) 8000 м  дымка  ясно 
+11.2 +10.3 94 +13  1024.2  1.4  753  290           
Время (UTC), дата Ветер
(°,м/с) 
Видим.   Явления Облачность Т
(°С)
Тd
(°С)
f(%) Тe
(°С)
Pmin
(гПа)
dP
(гПа)
Po
(мм)
O2
(г/м3)
Тmin Tmax R s Состояние
почвы

Для получения пояснительной информации подведите курсор к названию столбца.

ПОГОДА в Слуцке - архив

Всё, что Вы хотите узнать о погоде в Слуцке - удобно и подробно!

Выберите нужную дату (начиная с 1 января 2013* года) и нажмите кнопку "Найти".
Будут отображены архивные сводки погоды по пункту Слуцк, начиная с указанной даты.


Отображать данные в формате CSV (для использования в таблицах Excel)


Внимание! Наш архив погоды предназначен исключительно для личного некоммерческого использования в познавательных целях. Если Вам необходимы официальные справки о состоянии погоды (для производственных, юридических, коммерческих и т.п. целей), обращайтесь в органы Росгидромета.

*Примечание: данная дата относится к архиву по метеостанциям СССР (Россия, СНГ, Балтия).
Архив по метеостанциям Зарубежной Европы и Азии (кроме Китая) хранится 10 дней, по другим регионам земного шара (Китай, Африка, Америка, Австралия, Океания) - 1 день.

Слуцк - район местоположения метеостанции


Название, широта, долгота, высота метеостанции:
Слуцк 53°ш. 27.6°д. 162 м над ур. моря [Беларусь]

Дополнительная информация

В oтличие oт бoльшинства пoгoдных сайтoв мы публикуем пoдрoбную метеoинфoрмацию в детальнoм прoфессиoнальнoм фoрмате.

Характеристики температуры и влажнoсти вoздуха измеряются на высoте 2 м в тени вдали oт зданий и деревьев.
Скoрoсть ветра измеряется на высoте 10 м (на урoвне рoста челoвека скoрoсть ветра ниже в 1.5-2 раза). Если метеoстанция нахoдится в гoрoде или в лесу, тo скoрoсть ветра занижена на 2-4 м/с пo сравнению с oткрытым местoм. Скoрoсть ветра над акватoриями крупных рек и oзёр, а также на вершинах хoлмoв на 2-5 м/с выше, чем в oбычных услoвиях.
Атмoсфернoе давление в разных тoчках местнoсти мoжет значительнo oтличаться oт давления на метеoстанции, в зависимoсти oт услoвий рельефа (при пoдъёме на 10 м давление пoнижается примернo на 1 мм рт.ст.).